[[{"header":{"parameterUnit":"m.s-1","parameterCategory":1,"la1":30.2991,"la2":30.254,"lo1":-89.0895,"lo2":-89.0444,"dy":0.0017,"dx":0.0017,"nx":28,"ny":28,"refTime":"2025-12-06T09:00:00:Z","depth":0,"parameterNumber":2,"parameterNumberName":"U-component_of_WINDS"},"data":[0,0,0,0,0,0,0,0,0,0,0,0,0,0,0,0,0,0,0,0,0,0,0,0,0,0,0,0,0,0,0,0,0,0,0,0,0,0,0,0,0,0,0,0,0,0,0,0,0,0,0,0,0,0,0,0,0,0,-1.2425,-1.2425,0,-1.2431,-1.2431,-1.2431,-1.2401,-1.24,-1.2399,-1.2398,-1.2407,-1.2408,-1.2409,0,0,0,0,0,0,0,0,0,0,0,0,0,-1.239,-1.239,-1.2425,-1.2425,-1.2425,-1.2431,-1.2431,-1.2431,-1.2401,-1.24,-1.2399,-1.2398,-1.2407,-1.2408,-1.2409,0,0,0,0,0,0,0,0,0,0,0,0,0,-1.2401,-1.2391,-1.2425,-1.2411,-1.241,-1.2431,-1.2431,-1.2431,-1.2401,-1.24,-1.2399,-1.2397,-1.2406,-1.2408,-1.2409,-1.2446,0,0,-1.2414,-1.2415,0,0,0,0,0,0,0,0,-1.2401,-1.2403,-1.2413,-1.2412,-1.241,-1.2414,-1.2422,-1.2436,-1.2402,-1.2405,-1.2398,-1.2397,-1.2411,-1.2412,-1.2416,-1.2446,-1.2446,-1.2414,-1.2415,-1.2416,-1.2417,0,0,0,0,0,0,0,-1.24,-1.2402,-1.2427,-1.2413,-1.2412,-1.2405,-1.2405,-1.2424,-1.2415,-1.2404,-1.2402,-1.2403,-1.241,-1.2414,-1.2416,-1.2446,-1.2414,-1.2416,-1.2417,-1.2417,-1.2505,-1.2506,0,0,0,0,0,0,-1.2401,-1.2402,-1.2427,-1.2428,-1.2402,-1.2406,-1.2407,-1.2414,-1.2415,-1.2413,-1.2404,-1.2402,-1.2412,-1.2414,-1.2416,-1.2457,-1.2416,-1.2418,-1.2418,-1.2504,-1.2505,-1.2507,0,0,0,0,0,0,-1.24,-1.2403,-1.2427,-1.2414,-1.2416,-1.2408,-1.2417,-1.2415,-1.2419,-1.2414,-1.2413,-1.241,-1.2411,-1.2414,-1.2438,-1.2457,-1.2418,-1.242,-1.2502,-1.2504,-1.2506,-1.2541,0,0,0,0,0,0,-1.2399,-1.2403,-1.2416,-1.2414,-1.2417,-1.2448,-1.2418,-1.2416,-1.2422,-1.2419,-1.242,-1.2419,-1.2411,-1.2436,-1.2439,-1.2459,-1.2421,-1.25,-1.2503,-1.2505,-1.2538,-1.2544,-1.2549,0,0,0,0,0,-1.2398,-1.2427,-1.2417,-1.2421,-1.2434,-1.245,-1.2451,-1.244,-1.2424,-1.2437,-1.2434,-1.2419,-1.2454,-1.2438,-1.2442,-1.2463,-1.2499,-1.2502,-1.2505,-1.2536,-1.2543,-1.2549,0,0,0,0,0,0,-1.2433,-1.2427,-1.2416,-1.2445,-1.2448,-1.2444,-1.2461,-1.2448,-1.2457,-1.2454,-1.244,-1.2441,-1.2467,-1.2467,-1.2449,-1.2497,-1.2474,-1.2478,-1.2496,-1.2503,-1.2508,-1.2508,-1.2422,0,0,0,0,0,-1.2444,-1.2457,-1.2451,-1.2477,-1.2479,-1.247,-1.2476,-1.2467,-1.247,-1.2472,-1.247,-1.2474,-1.2486,-1.2494,-1.2505,-1.2538,-1.2537,-1.2553,-1.2559,-1.2563,-1.2567,-1.2584,-1.2591,-1.2517,-1.2517,-1.2517,0,0,-1.2467,-1.2465,-1.2474,-1.2484,-1.2485,-1.2499,-1.2471,-1.2487,-1.2498,-1.2474,-1.2497,-1.2495,-1.2499,-1.2527,-1.254,-1.2528,-1.2587,-1.2567,-1.2571,-1.2572,-1.2588,-1.2595,-1.2601,-1.2519,-1.2519,-1.2518,0,0,-1.2516,-1.2516,-1.2537,-1.2539,-1.254,-1.2534,-1.2539,-1.2537,-1.2535,-1.2557,-1.2539,-1.2551,-1.2572,-1.2575,-1.258,-1.2628,-1.2615,-1.2632,-1.2661,-1.2677,-1.2683,-1.2688,-1.2705,-1.2711,-1.2636,-1.2636,-1.2636,0,-1.2545,-1.2565,-1.255,-1.2567,-1.2572,-1.255,-1.2571,-1.2574,-1.2579,-1.2583,-1.257,-1.2594,-1.2596,-1.2624,-1.2635,-1.264,-1.2645,-1.2632,-1.2683,-1.2688,-1.2692,-1.2708,-1.2715,-1.2638,-1.2637,-1.2637,-1.2637,0,-1.26,-1.2614,-1.2631,-1.2635,-1.2641,-1.2661,-1.265,-1.2658,-1.2648,-1.2643,-1.2665,-1.2665,-1.2675,-1.2681,-1.2672,-1.2707,-1.27,-1.2685,-1.2662,-1.2702,-1.2716,-1.2722,-1.2641,-1.264,-1.2639,-1.2639,0,0,-1.2673,-1.2667,-1.2674,-1.2675,-1.2674,-1.2685,-1.2703,-1.2711,-1.2718,-1.2723,-1.2737,-1.2755,-1.274,-1.2745,-1.2736,-1.275,-1.2787,-1.2733,-1.2733,-1.2743,-1.2826,-1.2837,-1.2844,-1.2778,-1.2779,-1.278,-1.2825,0,-1.272,-1.275,-1.2737,-1.2768,-1.278,-1.2759,-1.2774,-1.2776,-1.2771,-1.2781,-1.2776,-1.2788,-1.2769,-1.2771,-1.2784,-1.278,-1.2804,-1.2777,-1.2792,-1.2793,-1.2792,-1.2852,-1.2864,-1.2907,-1.2831,-1.2832,-1.2833,0,-1.2781,-1.2785,-1.2817,-1.2813,-1.2818,-1.2832,-1.2838,-1.2847,-1.2848,-1.2844,-1.2848,-1.2836,-1.2853,-1.2829,-1.2853,-1.2835,-1.284,-1.2839,-1.284,-1.2841,-1.2815,-1.2855,-1.2921,-1.2927,-1.2842,-1.2841,-1.284,0,-1.283,-1.2845,-1.2865,-1.2867,-1.2863,-1.2873,-1.2872,-1.2871,-1.2877,-1.2882,-1.2885,-1.2893,-1.2897,-1.2904,-1.2893,-1.2877,-1.2918,-1.2894,-1.2915,-1.2915,-1.2925,-1.2925,-1.2993,-1.2929,-1.2929,-1.2928,-1.2928,0,-1.2885,-1.2905,-1.2887,-1.29,-1.2922,-1.2907,-1.2929,-1.2925,-1.2925,-1.2937,-1.2919,-1.293,-1.2916,-1.2926,-1.2918,-1.2938,-1.2941,-1.2938,-1.2935,-1.2939,-1.294,-1.2943,-1.294,-1.293,-1.293,-1.2929,-1.2929,0,-1.2944,-1.2933,-1.2954,-1.2947,-1.2946,-1.2962,-1.2957,-1.2969,-1.2962,-1.2977,-1.298,-1.297,-1.2981,-1.2971,-1.2982,-1.2976,-1.3003,-1.2997,-1.3003,-1.3001,-1.3022,-1.302,-1.3095,-1.3104,-1.3034,-1.3035,-1.3035,0,-1.298,-1.2995,-1.2989,-1.2995,-1.2995,-1.3005,-1.301,-1.2995,-1.3001,-1.3002,-1.3013,-1.3022,-1.3029,-1.3047,-1.3041,-1.3049,-1.3043,-1.3068,-1.3044,-1.3047,-1.3043,-1.3042,-1.3043,-1.3073,-1.3074,-1.3075,-1.3075,0,-1.3045,-1.3038,-1.3045,-1.305,-1.3056,-1.3059,-1.3061,-1.3067,-1.3052,-1.306,-1.307,-1.3075,-1.3084,-1.3094,-1.3099,-1.3099,-1.3085,-1.3083,-1.3088,-1.3092,-1.3095,-1.3093,-1.3016,-1.3081,-1.3081,-1.308,-1.308,-1.308,-1.3093,-1.3105,-1.3102,-1.311,-1.311,-1.3112,-1.3122,-1.3116,-1.3124,-1.313,-1.3121,-1.3133,-1.3133,-1.3139,-1.3139,-1.3149,-1.3138,-1.3146,-1.3148,-1.315,-1.3153,-1.3093,-1.315,-1.315,-1.315,-1.315,-1.3149,0,-1.3157,-1.3153,-1.3161,-1.3164,-1.317,-1.3154,-1.3156,-1.3162,-1.3173,-1.3173,-1.3179,-1.319,-1.3199,-1.3193,-1.32,-1.3208,-1.3202,-1.3211,-1.321,-1.321,-1.3163,-1.3157,-1.3216,-1.3216,-1.3216,-1.3216,-1.3216,-1.3216,-1.3191,-1.3209,-1.3202,-1.322,-1.3216,-1.3227,-1.3229,-1.3231,-1.3231,-1.3243,-1.325,-1.3245,-1.3243,-1.3249,-1.3256,-1.3254,-1.3257,-1.3268,-1.3264,-1.322,-1.3213,-1.3207,-1.3202,-1.3269,-1.3269,-1.331,-1.3311,-1.3311]},{"header":{"parameterUnit":"m.s-1","parameterCategory":1,"la1":30.2991,"la2":30.254,"lo1":-89.0895,"lo2":-89.0444,"dy":0.0017,"dx":0.0017,"nx":28,"ny":28,"refTime":"2025-12-06T09:00:00:Z","depth":0,"parameterNumber":3,"parameterNumberName":"V-component_of_WINDS"},"data":[0,0,0,0,0,0,0,0,0,0,0,0,0,0,0,0,0,0,0,0,0,0,0,0,0,0,0,0,0,0,0,0,0,0,0,0,0,0,0,0,0,0,0,0,0,0,0,0,0,0,0,0,0,0,0,0,0,0,-3.2594,-3.2595,0,-3.2675,-3.2675,-3.2676,-3.2632,-3.263,-3.2628,-3.2626,-3.2705,-3.2709,-3.2713,0,0,0,0,0,0,0,0,0,0,0,0,0,-3.2397,-3.2401,-3.2594,-3.2595,-3.2596,-3.2674,-3.2676,-3.2677,-3.2633,-3.263,-3.2628,-3.2625,-3.2703,-3.2708,-3.2713,0,0,0,0,0,0,0,0,0,0,0,0,0,-3.2481,-3.2403,-3.2594,-3.2584,-3.2583,-3.2674,-3.2676,-3.2677,-3.2633,-3.263,-3.2627,-3.2624,-3.2702,-3.2708,-3.2714,-3.2818,0,0,-3.2733,-3.2736,0,0,0,0,0,0,0,0,-3.2476,-3.2488,-3.2584,-3.2584,-3.2584,-3.264,-3.2635,-3.2724,-3.2634,-3.2614,-3.2626,-3.2622,-3.2686,-3.2693,-3.2715,-3.2822,-3.2825,-3.2733,-3.2737,-3.274,-3.2742,0,0,0,0,0,0,0,-3.247,-3.2484,-3.2626,-3.2585,-3.2586,-3.2574,-3.2582,-3.2652,-3.2667,-3.2616,-3.2613,-3.2623,-3.2685,-3.2709,-3.2717,-3.2826,-3.2733,-3.2739,-3.2743,-3.2745,-3.3022,-3.3025,0,0,0,0,0,0,-3.2466,-3.248,-3.2623,-3.2628,-3.2521,-3.258,-3.2589,-3.2626,-3.2666,-3.267,-3.2626,-3.2621,-3.27,-3.2709,-3.2719,-3.2844,-3.274,-3.2746,-3.2749,-3.3018,-3.3022,-3.3026,0,0,0,0,0,0,-3.2462,-3.2479,-3.262,-3.2553,-3.257,-3.2587,-3.2628,-3.2629,-3.2653,-3.2674,-3.2676,-3.2648,-3.2698,-3.2711,-3.2794,-3.2846,-3.2748,-3.2754,-3.3014,-3.3019,-3.3024,-3.3095,0,0,0,0,0,0,-3.2456,-3.2478,-3.2519,-3.2555,-3.2574,-3.2695,-3.2631,-3.2633,-3.2664,-3.2659,-3.2696,-3.2698,-3.2696,-3.2785,-3.28,-3.2853,-3.2759,-3.3009,-3.3016,-3.3023,-3.3088,-3.3102,-3.3114,0,0,0,0,0,-3.245,-3.2534,-3.2521,-3.2538,-3.2626,-3.2698,-3.2709,-3.2706,-3.2669,-3.2709,-3.2723,-3.2697,-3.2838,-3.2794,-3.2811,-3.2866,-3.3006,-3.3014,-3.3022,-3.3082,-3.3099,-3.3114,0,0,0,0,0,0,-3.2503,-3.2539,-3.2524,-3.2624,-3.2658,-3.269,-3.2741,-3.2724,-3.2769,-3.2761,-3.2754,-3.2763,-3.285,-3.2866,-3.2817,-3.2969,-3.2916,-3.2928,-3.2956,-3.2972,-3.2985,-3.298,-3.2764,0,0,0,0,0,-3.2526,-3.2584,-3.2611,-3.2696,-3.2714,-3.2725,-3.2756,-3.2751,-3.2786,-3.28,-3.2819,-3.2853,-3.2905,-3.2939,-3.2988,-3.3089,-3.3097,-3.3136,-3.3149,-3.3159,-3.317,-3.3225,-3.3243,-3.3053,-3.3053,-3.3053,0,0,-3.2575,-3.2602,-3.2638,-3.2707,-3.2734,-3.2792,-3.2738,-3.2801,-3.2844,-3.2809,-3.289,-3.2905,-3.2942,-3.3036,-3.3077,-3.3051,-3.3224,-3.317,-3.3178,-3.3183,-3.3235,-3.3253,-3.3269,-3.3059,-3.3058,-3.3057,0,0,-3.2694,-3.272,-3.2794,-3.2822,-3.2862,-3.2869,-3.2887,-3.2922,-3.2931,-3.3012,-3.2987,-3.3037,-3.3126,-3.3154,-3.3179,-3.3309,-3.3287,-3.3324,-3.3393,-3.3447,-3.3462,-3.3475,-3.3522,-3.3538,-3.3335,-3.3335,-3.3335,0,-3.275,-3.2838,-3.2834,-3.29,-3.2931,-3.2903,-3.2978,-3.3004,-3.3058,-3.3079,-3.3049,-3.3161,-3.3184,-3.3283,-3.3315,-3.3336,-3.3356,-3.3321,-3.346,-3.3473,-3.3486,-3.353,-3.3548,-3.3339,-3.3339,-3.3338,-3.3338,0,-3.2904,-3.2965,-3.302,-3.3075,-3.3111,-3.3181,-3.3187,-3.3224,-3.3215,-3.3225,-3.3307,-3.3333,-3.3387,-3.341,-3.3401,-3.3508,-3.3491,-3.3461,-3.3408,-3.3508,-3.355,-3.3567,-3.3345,-3.3344,-3.3343,-3.3341,0,0,-3.306,-3.3112,-3.3132,-3.3157,-3.3199,-3.3246,-3.3314,-3.3368,-3.34,-3.3438,-3.3494,-3.357,-3.3543,-3.3572,-3.3566,-3.3613,-3.3714,-3.3577,-3.3578,-3.3602,-3.3834,-3.3857,-3.3877,-3.37,-3.3703,-3.3705,-3.3831,0,-3.3182,-3.3304,-3.3302,-3.3413,-3.347,-3.3444,-3.3503,-3.3535,-3.3545,-3.3593,-3.3603,-3.3658,-3.3617,-3.3635,-3.368,-3.3693,-3.3761,-3.3683,-3.3752,-3.3754,-3.3745,-3.3899,-3.3924,-3.4041,-3.3847,-3.385,-3.3852,0,-3.3342,-3.3387,-3.3505,-3.354,-3.3563,-3.3617,-3.3666,-3.3713,-3.3748,-3.3752,-3.3784,-3.3771,-3.3839,-3.3783,-3.3876,-3.3823,-3.385,-3.3861,-3.3865,-3.3872,-3.381,-3.3911,-3.4079,-3.4097,-3.3877,-3.3875,-3.3874,0,-3.3445,-3.3535,-3.3617,-3.3639,-3.3681,-3.3719,-3.3738,-3.377,-3.3803,-3.3845,-3.3866,-3.3915,-3.3942,-3.398,-3.3979,-3.3939,-3.4073,-3.4017,-3.4078,-3.4079,-3.4109,-3.4107,-3.4285,-3.4125,-3.4125,-3.4124,-3.4124,0,-3.3583,-3.3656,-3.3664,-3.3715,-3.3796,-3.3792,-3.3872,-3.3887,-3.3915,-3.3968,-3.3947,-3.3996,-3.3992,-3.4041,-3.4041,-3.4118,-3.413,-3.4135,-3.4134,-3.4138,-3.4137,-3.4157,-3.4149,-3.4129,-3.4128,-3.4127,-3.4126,0,-3.3713,-3.3721,-3.3809,-3.3842,-3.3852,-3.391,-3.3938,-3.3985,-3.3993,-3.406,-3.4075,-3.4087,-3.4144,-3.4147,-3.4212,-3.4212,-3.4306,-3.4296,-3.4295,-3.4294,-3.4355,-3.435,-3.4552,-3.4578,-3.44,-3.4402,-3.4404,0,-3.3801,-3.3857,-3.3896,-3.3931,-3.3953,-3.4008,-3.4041,-3.4039,-3.4074,-3.4119,-3.4161,-3.4216,-3.426,-3.4352,-3.4366,-3.4416,-3.4407,-3.4474,-3.4414,-3.4416,-3.4409,-3.4406,-3.4412,-3.4486,-3.4488,-3.449,-3.4491,0,-3.3957,-3.3958,-3.4008,-3.406,-3.4101,-3.4141,-3.4178,-3.4207,-3.4209,-3.425,-3.4309,-3.4343,-3.441,-3.4465,-3.4513,-3.4531,-3.4512,-3.451,-3.4527,-3.4532,-3.4529,-3.4532,-3.4329,-3.4505,-3.4504,-3.4503,-3.4502,-3.4502,-3.4069,-3.4118,-3.4154,-3.421,-3.4238,-3.4273,-3.432,-3.4334,-3.4384,-3.444,-3.4435,-3.45,-3.4533,-3.4596,-3.4618,-3.4668,-3.4645,-3.4669,-3.4675,-3.4682,-3.4689,-3.452,-3.4676,-3.4676,-3.4675,-3.4675,-3.4675,0,-3.4225,-3.4246,-3.4298,-3.4352,-3.4396,-3.4375,-3.4415,-3.4453,-3.4511,-3.4544,-3.4589,-3.4656,-3.4709,-3.4727,-3.4779,-3.4815,-3.4808,-3.4829,-3.4827,-3.4831,-3.4706,-3.4687,-3.4834,-3.4834,-3.4834,-3.4834,-3.4834,-3.4834,-3.4311,-3.4393,-3.4398,-3.4493,-3.4514,-3.4579,-3.4604,-3.4636,-3.4663,-3.474,-3.4785,-3.4796,-3.4823,-3.4876,-3.4924,-3.4927,-3.4948,-3.4973,-3.4973,-3.4856,-3.484,-3.4825,-3.4807,-3.4977,-3.4977,-3.5095,-3.5096,-3.5097]}]]